| time (UTC) | temp F | wind direction | speed MPH | gust MPH | rain 1hr in | rain 24hr in | rain mn in | humidity % | barometer mb |
| 20260508141557 | 54 | 217 | 1.0 | 8.0 | 0.00 | 0.00 | 0.00 | 42 | 1008.6 |
| 20260508140104 | 53 | 198 | 3.0 | 9.0 | 0.00 | 0.00 | 0.00 | 41 | 1008.7 |
| 20260508134600 | 53 | 203 | 6.0 | 10.0 | 0.00 | 0.00 | 0.00 | 39 | 1008.8 |
| 20260508133051 | 53 | 196 | 6.0 | 13.0 | 0.00 | 0.00 | 0.00 | 39 | 1008.8 |
| 20260508131547 | 52 | 192 | 5.0 | 13.0 | 0.00 | 0.00 | 0.00 | 41 | 1009.0 |
| 20260508130044 | 50 | 200 | 6.0 | 11.0 | 0.00 | 0.00 | 0.00 | 41 | 1008.9 |
| 20260508124540 | 48 | 198 | 5.0 | 10.0 | 0.00 | 0.00 | 0.00 | 43 | 1009.0 |
| 20260508123037 | 47 | 215 | 3.0 | 8.0 | 0.00 | 0.00 | 0.00 | 45 | 1009.0 |
| 20260508121537 | 46 | 212 | 3.0 | 5.0 | 0.00 | 0.00 | 0.00 | 47 | 1009.1 |
| 20260508120038 | 45 | 207 | 2.0 | 7.0 | 0.00 | 0.00 | 0.00 | 48 | 1008.9 |
| 20260508114527 | 44 | 196 | 3.0 | 6.0 | 0.00 | 0.00 | 0.00 | 48 | 1008.9 |
| 20260508113022 | 44 | 217 | 3.0 | 6.0 | 0.00 | 0.00 | 0.00 | 48 | 1008.9 |
| 20260508111527 | 44 | 200 | 4.0 | 7.0 | 0.00 | 0.00 | 0.00 | 48 | 1009.0 |
| 20260508110020 | 44 | 199 | 3.0 | 7.0 | 0.00 | 0.00 | 0.00 | 48 | 1008.9 |
| 20260508104514 | 43 | 209 | 3.0 | 5.0 | 0.00 | 0.00 | 0.00 | 48 | 1008.9 |
| 20260508103022 | 44 | 207 | 3.0 | 5.0 | 0.00 | 0.00 | 0.00 | 48 | 1008.9 |
| 20260508101511 | 44 | 217 | 3.0 | 6.0 | 0.00 | 0.00 | 0.00 | 48 | 1009.0 |
| 20260508100009 | 44 | 206 | 2.0 | 5.0 | 0.00 | 0.00 | 0.00 | 48 | 1009.1 |
| 20260508094507 | 44 | 224 | 3.0 | 6.0 | 0.00 | 0.00 | 0.00 | 47 | 1009.1 |
| 20260508093004 | 45 | 228 | 2.0 | 5.0 | 0.00 | 0.00 | 0.00 | 46 | 1009.2 |
| 20260508091503 | 45 | 215 | 3.0 | 6.0 | 0.00 | 0.00 | 0.00 | 45 | 1009.2 |
| 20260508090004 | 45 | 209 | 3.0 | 6.0 | 0.00 | 0.00 | 0.00 | 46 | 1009.3 |
| 20260508084501 | 45 | 202 | 3.0 | 6.0 | 0.00 | 0.00 | 0.00 | 47 | 1009.2 |
| 20260508083109 | 45 | 204 | 4.0 | 6.0 | 0.00 | 0.00 | 0.00 | 47 | 1009.2 |
| 20260508081605 | 45 | 208 | 2.0 | 5.0 | 0.00 | 0.00 | 0.00 | 47 | 1009.3 |
| 20260508074603 | 45 | 202 | 2.0 | 5.0 | 0.00 | 0.00 | 0.00 | 47 | 1009.6 |
| 20260508073053 | 46 | 202 | 2.0 | 5.0 | 0.00 | 0.00 | 0.00 | 48 | 1009.6 |
| 20260508071550 | 46 | 197 | 3.0 | 5.0 | 0.00 | 0.00 | 0.00 | 48 | 1009.7 |
| 20260508070048 | 45 | 190 | 2.0 | 4.0 | 0.00 | 0.00 | 0.00 | 49 | 1009.8 |
| 20260508064546 | 46 | 188 | 2.0 | 4.0 | 0.00 | 0.00 | 0.00 | 48 | 1009.8 |
| 20260508063045 | 46 | 192 | 2.0 | 4.0 | 0.00 | 0.00 | 0.00 | 48 | 1010.0 |
| 20260508061542 | 47 | 180 | 3.0 | 4.0 | 0.00 | 0.00 | 0.00 | 47 | 1010.1 |
| 20260508060042 | 47 | 171 | 3.0 | 9.0 | 0.00 | 0.00 | 0.00 | 48 | 1010.2 |
| 20260508054542 | 46 | 197 | 3.0 | 6.0 | 0.00 | 0.00 | 0.00 | 51 | 1010.3 |
| 20260508053033 | 47 | 202 | 3.0 | 6.0 | 0.00 | 0.00 | 0.00 | 50 | 1010.4 |
| 20260508051535 | 47 | 181 | 2.0 | 3.0 | 0.00 | 0.00 | 0.00 | 50 | 1010.4 |
| 20260508050034 | 48 | 178 | 2.0 | 3.0 | 0.00 | 0.00 | 0.00 | 49 | 1010.4 |
| 20260508044530 | 48 | 182 | 3.0 | 4.0 | 0.00 | 0.00 | 0.00 | 48 | 1010.6 |
| 20260508043028 | 49 | 180 | 2.0 | 5.0 | 0.00 | 0.00 | 0.00 | 46 | 1010.6 |
| 20260508041527 | 49 | 181 | 1.0 | 4.0 | 0.00 | 0.00 | 0.00 | 45 | 1010.7 |
| 20260508040029 | 50 | 186 | 2.0 | 4.0 | 0.00 | 0.00 | 0.00 | 43 | 1010.8 |
| 20260508034532 | 50 | 188 | 3.0 | 4.0 | 0.00 | 0.00 | 0.00 | 41 | 1010.9 |
| 20260508033027 | 51 | 190 | 1.0 | 3.0 | 0.00 | 0.00 | 0.00 | 41 | 1011.0 |
| 20260508031527 | 51 | 190 | 1.0 | 3.0 | 0.00 | 0.00 | 0.00 | 40 | 1011.0 |
| 20260508030026 | 53 | 211 | 2.0 | 4.0 | 0.00 | 0.00 | 0.00 | 36 | 1011.0 |
| 20260508024527 | 52 | 284 | 1.0 | 2.0 | 0.00 | 0.00 | 0.00 | 35 | 1011.0 |
| 20260508023024 | 53 | 284 | 0.0 | 2.0 | 0.00 | 0.00 | 0.00 | 34 | 1011.0 |
| 20260508021527 | 54 | 284 | 0.0 | 2.0 | 0.00 | 0.00 | 0.00 | 33 | 1011.0 |
| 20260508020034 | 54 | 284 | 0.0 | 2.0 | 0.00 | 0.00 | 0.00 | 32 | 1010.8 |
| 20260508014524 | 55 | 284 | 1.0 | 3.0 | 0.00 | 0.00 | 0.00 | 31 | 1010.7 |
| 20260508013022 | 56 | 284 | 1.0 | 4.0 | 0.00 | 0.00 | 0.00 | 30 | 1010.6 |